Track STARLINK-3392 now! 10-day predictions STARLINK-3392 is classified as:
1 51123U 22005V 22135.91667824 -.00651444 00000-0 -39048-1 0 9998 2 51123 53.2175 66.0498 0001880 38.2408 64.4567 15.12865321 1302